RH
86 72 83 81 88 81 78 76 38 45 50 47 46 46 86 80 73 87 94 92 79 76 74 70 66 65 56 58 75 63 38 33 31 30 27 31 28 26 29 27 30 25 27 38 31
97 97 82 86 79 90 78 79 54 41 55 47 45 49 96 86 94 96 87 79 79 78 83 72 64 64 56 55 63 50 44 32 28 31 32 31 33 31 32 29 28 29 33 43 37
96 99 98 85 84 90 82 79 75 41 57 48 48 54 97 91 100 93 89 74 81 87 86 75 71 61 54 58 57 52 49 36 47 45 45 38 41 42 34 33 30 28 29 40 46
97 100 99 97 85 86 97 82 78 44 58 51 52 52 84 100 79 86 84 86 82 98 95 84 70 59 52 52 53 60 51 46 49 57 61 52 49 49 40 32 35 41 44 46 43
97 91 99 99 94 88 95 89 79 48 61 50 56 60 73 90 86 69 74 71 70 90 98 84 70 58 54 51 59 56 44 52 53 62 58 55 54 50 45 47 47 47 48 45 41
95 97 98 97 100 88 92 100 82 57 64 52 57 82 72 70 63 74 68 71 85 98 98 88 83 72 60 56 54 53 57 53 53 51 51 51 43 42 42 40 41 41 42 41 38
94 92 95 90 100 99 96 98 87 66 59 57 59 81 84 54 47 45 70 65 69 99 97 94 83 74 66 61 68 62 61 47 46 44 44 48 45 41 35 36 35 35 33 37 35
89 90 82 78 94 97 100 100 96 63 62 71 70 82 85 66 60 50 47 71 91 90 97 94 84 76 62 69 60 56 59 51 39 46 42 45 38 23 28 32 33 33 32 30 30
90 91 95 81 81 78 99 100 99 65 76 86 86 86 75 70 66 58 52 81 91 94 86 77 76 64 71 59 57 56 42 51 42 44 46 48 38 30 43 40 33 32 35 39 41
89 75 82 75 73 64 91 100 99 87 92 98 100 89 83 70 63 60 59 71 73 79 86 76 63 57 58 60 46 42 52 47 43 35 43 44 44 36 37 37 36 37 37 37 38
98 76 76 75 75 60 76 100 100 100 100 95 85 74 74 74 63 70 73 74 70 65 66 62 64 67 55 55 47 51 51 49 41 39 45 41 37 31 29 29 28 28 27 29 34
85 79 77 82 78 79 85 100 94 86 94 100 88 82 79 79 74 78 75 62 62 61 59 69 80 51 54 54 60 60 63 58 46 43 47 43 42 33 30 29 30 28 24 22 20
84 86 87 85 89 82 98 82 96 80 63 81 98 85 82 78 66 74 71 65 57 63 65 66 58 52 60 62 69 65 65 56 55 46 46 47 39 25 21 24 26 27 27 25 23
82 94 95 92 89 97 92 84 98 89 99 72 84 77 83 75 66 75 69 63 65 64 62 63 54 58 63 66 60 69 50 58 59 65 65 47 56 30 24 23 22 22 23 25 26
85 90 92 98 99 96 78 97 89 95 97 65 83 84 81 60 67 81 74 65 63 67 65 66 69 68 71 62 59 64 53 56 58 65 65 56 77 35 29 28 25 21 21 22 23
87 84 93 98 100 78 76 96 100 99 96 89 85 90 83 62 70 82 74 69 58 62 65 52 60 60 58 56 56 56 62 65 60 71 86 50 57 31 22 19 19 18 18 21 22
83 89 97 95 96 86 76 96 99 96 75 94 87 83 72 69 74 72 79 82 72 88 88 65 68 57 57 61 64 67 82 80 85 90 68 37 45 38 26 23 20 17 18 17 19
83 81 97 96 86 98 95 100 96 81 80 65 76 76 76 65 72 78 77 86 60 60 64 74 76 68 60 60 67 78 76 69 80 60 45 42 48 29 22 21 21 21 21 22 24
90 98 95 91 99 95 97 97 91 66 64 71 80 97 98 71 77 81 82 66 58 63 71 70 71 61 63 59 56 96 98 56 82 59 65 42 31 24 19 19 19 20 22 24 28
100 97 96 90 100 99 88 89 99 62 60 58 74 66 83 87 77 70 74 54 59 53 46 60 75 57 69 67 62 63 53 90 90 80 67 40 32 27 22 21 24 30 32 37 39
99 99 95 91 99 88 88 96 90 65 58 62 71 76 65 74 62 68 63 59 51 59 51 62 62 80 71 77 70 85 96 83 66 59 62 56 35 20 24 24 38 43 41 40 46
100 100 97 92 98 94 97 97 88 70 70 64 58 63 64 59 66 65 66 59 58 62 75 63 80 82 72 44 45 48 58 57 77 65 64 64 60 26 25 26 36 31 41 56 68
100 100 100 99 99 98 95 97 84 71 66 61 66 59 57 63 76 62 62 57 64 60 65 65 95 80 67 72 60 64 53 50 55 63 84 83 52 32 26 27 30 37 48 74 77
100 100 100 99 96 79 87 100 93 77 65 66 70 59 62 64 62 66 66 67 66 60 65 58 72 67 59 57 66 88 66 57 74 94 69 67 53 39 36 39 51 63 74 91 86
100 100 99 100 86 72 74 89 80 83 69 68 66 60 63 79 72 70 58 74 71 70 71 80 98 71 63 60 59 70 75 67 94 85 92 58 55 47 48 53 66 81 93 87 88
99 100 99 86 81 77 83 83 69 75 67 70 68 61 57 66 56 66 59 63 73 74 86 84 85 73 78 58 62 83 66 74 94 95 95 94 93 64 70 61 58 89 89 90 90
98 99 99 86 81 96 92 75 72 70 76 72 60 68 68 57 53 58 70 81 66 70 85 95 94 74 77 57 72 97 95 96 95 90 93 96 77 56 69 58 71 89 91 90 87
Wind_Speed
18 19 18 20 18 16 18 17 17 13 12 11 9 8 6 8 13 18 21 13 11 15 12 7 5 5 7 8 6 8 8 13 20 15 11 6 10 10 6 9 4 5 4 3 4
20 18 20 19 19 17 15 17 16 15 11 11 10 8 3 6 12 19 20 14 12 11 10 8 6 7 8 8 8 11 11 17 7 11 8 7 9 6 7 11 12 9 2 3 4
16 15 17 20 18 19 16 15 15 15 12 10 9 7 6 7 6 10 17 17 15 11 9 9 7 7 9 7 10 12 15 10 6 8 6 11 12 9 11 13 16 12 7 3 2
18 15 17 18 19 18 20 15 14 12 13 10 9 7 9 10 6 7 12 15 19 18 12 9 8 8 7 9 9 8 14 15 9 9 5 11 11 14 18 23 7 7 9 10 9
22 19 18 16 19 18 19 18 13 11 12 11 8 7 9 8 8 5 7 9 14 18 19 13 12 9 9 5 7 11 10 10 11 9 13 16 21 21 19 20 20 21 20 20 18
22 22 20 17 16 19 17 21 12 10 10 11 9 7 9 8 11 16 8 5 9 17 20 15 9 9 5 6 10 2 6 10 11 14 13 16 23 23 25 27 27 28 30 29 27
23 23 21 24 18 16 18 21 13 9 10 11 10 8 8 10 7 10 15 7 8 14 18 17 10 9 6 4 5 6 9 10 14 14 14 11 19 20 36 30 32 30 28 26 27
27 24 22 21 21 16 15 18 18 11 11 10 10 8 7 8 13 10 11 13 11 11 11 13 8 6 4 2 2 4 3 5 4 1 6 11 20 8 14 18 23 25 28 30 32
28 26 24 22 21 26 15 18 25 15 13 11 10 7 5 5 12 14 12 14 15 13 12 11 9 6 6 5 4 5 6 7 7 3 4 12 13 5 6 10 17 21 19 20 23
31 26 23 23 20 20 20 12 25 19 17 11 6 4 9 5 8 15 18 17 12 15 11 7 5 6 6 7 5 5 6 7 10 2 9 16 22 21 26 27 25 23 22 24 24
27 26 23 22 22 17 23 18 19 10 25 11 12 4 6 8 11 12 18 14 16 15 8 12 6 10 12 12 7 1 5 9 9 10 18 19 23 23 26 31 30 32 31 32 30
27 25 21 21 21 17 16 15 16 8 8 16 11 12 9 11 5 11 19 11 18 14 12 7 13 11 5 9 10 12 14 15 14 11 11 19 32 25 27 27 35 35 35 36 36
27 23 22 23 19 18 15 21 19 11 4 11 15 11 9 11 6 16 22 10 14 14 17 9 2 7 12 10 11 14 15 15 15 15 16 17 26 18 10 20 28 34 37 35 35
27 21 24 20 14 7 14 10 15 7 2 9 13 12 13 9 5 15 22 10 6 14 12 9 9 6 9 12 11 13 8 12 11 7 5 6 11 15 15 16 15 21 24 27 28
26 23 27 22 19 16 14 9 13 15 6 14 10 9 15 15 15 12 19 5 11 11 7 7 9 14 11 9 8 6 3 6 8 10 13 10 7 11 3 10 13 13 20 21 22
26 26 27 20 17 18 16 7 25 5 6 8 8 13 14 18 7 12 16 4 7 6 4 4 3 6 7 8 13 2 5 6 8 6 8 16 14 21 8 6 3 5 10 13 16
27 34 29 37 41 26 15 8 3 5 9 9 9 15 16 14 10 12 14 11 8 7 8 8 12 6 9 8 5 9 5 2 4 5 7 2 11 21 20 16 17 19 26 23 18
30 36 31 26 18 20 21 2 8 7 6 4 10 16 9 17 8 11 16 12 14 7 6 6 4 16 12 14 6 15 7 4 5 4 7 2 12 7 6 8 11 20 25 24 23
39 38 13 10 15 31 20 5 3 8 10 13 16 5 5 10 6 7 12 12 12 13 6 6 3 4 5 4 10 5 7 7 9 14 11 8 13 18 23 19 15 14 16 18 17
35 24 9 4 24 31 7 3 1 2 15 16 7 5 7 11 8 10 13 9 7 16 12 3 2 3 5 5 8 5 3 3 4 5 7 8 19 15 17 17 9 5 7 15 23
18 11 2 10 33 17 6 3 1 13 12 3 6 7 8 13 7 10 13 4 11 11 16 8 3 4 6 11 13 7 4 4 3 6 5 9 9 8 14 14 7 9 19 29 33
11 2 11 27 5 3 5 7 3 10 3 3 6 10 16 17 9 9 9 1 9 12 11 10 4 5 11 8 9 15 13 17 6 8 8 9 17 18 17 12 12 18 29 30 36
6 2 14 27 2 3 6 3 1 6 1 3 3 3 7 12 7 8 7 5 14 11 12 10 5 2 2 1 6 10 16 17 18 14 16 11 14 2 15 25 29 26 30 23 18
3 1 6 8 5 7 7 2 3 4 3 5 5 7 9 10 3 9 6 4 11 9 9 13 5 8 7 3 5 6 12 17 17 8 17 24 35 31 29 23 20 26 10 5 5
5 2 1 2 7 9 3 6 8 3 3 4 3 6 6 4 4 5 8 6 7 7 8 8 5 12 16 18 17 17 18 19 19 24 16 33 25 30 28 24 18 13 3 2 6
10 5 7 5 15 11 3 7 12 4 3 0 4 9 5 5 4 7 8 5 4 6 7 7 3 7 13 16 17 17 21 22 21 21 18 26 29 27 26 22 17 1 1 4 8
21 11 5 8 6 4 5 9 9 6 2 3 3 7 6 3 4 7 6 3 2 6 10 7 2 3 5 5 10 10 9 10 6 8 7 8 13 14 16 15 7 1 5 9 12
Wind_Direction
300 293 292 288 280 296 313 317 295 285 286 280 268 261 262 240 217 211 221 221 235 242 244 198 187 195 198 205 193 186 222 231 228 240 231 221 228 227 244 245 227 209 253 299 296
301 300 288 290 279 274 297 310 305 286 281 278 267 249 218 208 199 218 222 218 221 227 211 182 184 180 202 200 198 210 222 235 251 251 242 229 244 218 226 214 224 211 188 352 277
284 305 299 288 280 267 275 292 303 287 278 271 265 244 192 189 208 239 232 227 212 207 198 177 175 185 203 199 199 218 233 215 227 239 238 248 240 239 244 242 231 226 238 299 350
313 306 298 287 279 272 264 268 289 286 277 261 258 238 191 186 219 196 203 210 218 222 202 172 174 193 206 208 207 234 241 249 245 226 236 246 265 246 243 246 252 242 268 271 267
331 290 314 309 275 270 257 262 275 277 268 255 247 228 189 216 233 198 192 213 223 214 200 189 190 198 211 207 212 233 242 243 245 249 256 260 256 257 261 252 254 262 263 264 263
328 324 292 288 307 262 256 245 251 266 257 250 235 220 195 215 232 224 201 218 208 196 198 193 197 202 205 225 230 232 252 264 263 259 257 258 259 255 255 256 256 256 257 257 256
319 316 312 286 295 265 251 251 231 247 242 237 229 219 222 233 233 214 207 212 186 181 183 189 175 183 184 207 233 255 271 263 254 247 258 256 260 242 249 252 254 252 251 252 248
321 312 315 300 288 275 251 250 228 215 214 218 227 223 244 248 229 212 195 193 171 177 175 166 160 158 201 184 196 247 258 269 86 270 240 215 260 255 256 245 249 253 252 250 249
317 308 305 311 302 270 244 234 226 200 197 201 214 207 258 239 218 201 184 171 164 157 153 161 148 163 180 220 237 214 255 236 291 222 272 216 275 261 261 252 257 254 252 252 250
316 315 306 305 296 297 254 267 215 189 178 183 202 217 226 212 193 188 182 180 151 140 123 151 160 199 209 199 245 232 230 240 249 183 269 265 262 268 267 269 263 259 254 249 247
310 312 311 300 301 284 249 287 162 183 177 185 190 167 138 157 152 168 166 156 165 172 181 182 195 211 211 219 244 243 250 260 260 271 297 274 273 273 271 266 260 257 254 254 252
306 308 310 312 303 278 267 276 194 164 189 209 173 188 158 163 143 165 166 166 169 179 160 169 229 230 217 224 234 247 260 268 279 287 282 288 282 278 263 253 250 251 250 248 248
313 314 308 313 301 287 283 254 210 159 159 189 193 183 186 178 174 178 176 180 189 177 193 187 116 224 206 216 229 242 257 266 274 300 285 291 284 261 258 248 249 249 250 251 247
312 310 311 307 309 294 311 276 251 210 142 171 190 215 181 162 208 174 174 165 182 196 189 222 213 145 187 228 231 265 249 255 268 282 279 30 293 276 264 262 246 247 244 244 244
314 314 318 313 303 295 287 321 213 169 218 138 147 162 183 175 133 177 178 175 180 165 176 186 186 210 222 237 208 235 239 246 266 272 295 255 246 268 183 255 251 250 263 259 254
312 312 308 291 285 280 282 277 164 194 197 151 136 162 157 189 151 148 174 183 164 162 223 203 149 186 192 218 214 57 229 245 257 263 261 232 214 280 280 322 262 251 261 252 253
315 315 303 290 272 274 243 224 207 216 158 147 159 152 155 172 152 158 176 183 176 177 210 207 216 189 179 198 191 205 185 242 220 214 249 4 223 252 288 283 273 277 285 272 269
320 320 309 280 263 195 180 170 234 128 145 180 144 145 168 160 162 166 171 189 213 211 142 192 206 193 199 214 197 196 197 240 279 245 289 207 244 256 281 274 268 268 272 274 269
326 332 313 327 174 162 154 206 199 153 144 143 133 138 125 162 142 156 182 193 200 195 192 179 228 174 188 183 187 161 213 245 271 270 281 245 261 270 267 269 267 269 278 275 271
328 340 303 296 163 158 158 239 132 151 141 146 127 178 154 158 155 176 176 201 196 201 210 165 209 181 151 189 223 211 143 176 190 272 266 263 275 257 273 287 308 286 300 293 284
326 322 62 162 149 152 183 160 112 150 144 148 145 131 161 163 170 182 180 154 199 189 189 158 239 138 167 206 193 183 212 221 285 247 273 299 268 284 288 298 269 267 284 290 282
305 292 145 160 146 168 157 130 232 166 190 156 116 105 156 164 167 178 190 160 171 148 181 194 171 228 228 234 225 224 221 216 224 211 233 284 276 275 274 282 255 299 301 299 303
276 254 159 173 136 144 103 136 265 160 134 157 113 118 150 159 154 165 183 150 160 173 166 165 205 219 222 61 228 234 230 234 234 266 248 263 265 210 294 309 306 307 306 309 311
268 313 75 165 257 138 152 159 130 65 75 71 105 111 118 147 64 172 147 125 173 181 168 180 207 227 267 344 134 207 214 223 223 239 260 242 270 284 292 307 322 319 326 331 280
4 19 116 182 156 152 151 151 142 135 73 54 88 151 131 135 151 156 170 136 163 210 181 172 237 233 256 266 265 260 256 249 237 241 248 275 282 288 301 305 321 329 37 99 135
360 6 347 143 155 165 168 171 161 120 127 340 129 151 126 137 188 180 181 193 186 182 188 187 254 245 271 261 256 261 263 267 256 254 251 260 272 278 279 297 303 248 126 117 126
357 342 325 156 176 137 168 168 177 145 101 29 193 137 178 185 156 125 115 90 183 175 194 177 218 257 267 310 300 267 258 243 249 224 217 241 251 282 300 318 319 176 152 143 142